TimePDT,TemperatureF,Dew PointF,Humidity,Sea Level PressureIn,VisibilityMPH,Wind Direction,Wind SpeedMPH,Gust SpeedMPH,PrecipitationIn,Events,Conditions,WindDirDegrees,DateUTC
12:53 AM,45.0,37.0,74,30.35,10.0,Calm,Calm,-,N/A,,Scattered Clouds,0,2013-04-22 07:53:00
1:53 AM,42.1,36.0,79,30.36,10.0,Calm,Calm,-,N/A,,Clear,0,2013-04-22 08:53:00
2:53 AM,42.1,36.0,79,30.36,10.0,North,4.6,-,N/A,,Clear,350,2013-04-22 09:53:00
3:53 AM,39.0,35.1,86,30.37,10.0,NW,4.6,-,N/A,,Clear,320,2013-04-22 10:53:00
4:53 AM,39.0,35.1,86,30.38,10.0,NNW,4.6,-,N/A,,Clear,330,2013-04-22 11:53:00
5:53 AM,39.0,35.1,86,30.39,10.0,North,4.6,-,N/A,,Clear,350,2013-04-22 12:53:00
6:53 AM,37.9,34.0,86,30.41,10.0,North,4.6,-,N/A,,Clear,10,2013-04-22 13:53:00
7:53 AM,45.0,37.9,76,30.43,10.0,North,9.2,-,N/A,,Clear,360,2013-04-22 14:53:00
8:53 AM,48.9,39.9,71,30.43,10.0,North,8.1,-,N/A,,Clear,350,2013-04-22 15:53:00
9:53 AM,53.1,39.0,59,30.43,10.0,Variable,6.9,-,N/A,,Clear,0,2013-04-22 16:53:00
10:53 AM,57.0,37.0,47,30.43,10.0,NNE,11.5,-,N/A,,Clear,30,2013-04-22 17:53:00
11:53 AM,60.1,33.1,36,30.43,10.0,NNE,11.5,-,N/A,,Clear,20,2013-04-22 18:53:00
12:53 PM,62.1,35.1,37,30.41,10.0,NNE,11.5,20.7,N/A,,Clear,20,2013-04-22 19:53:00
1:53 PM,63.0,36.0,37,30.40,10.0,NE,10.4,19.6,N/A,,Clear,40,2013-04-22 20:53:00
2:53 PM,64.9,33.1,31,30.39,10.0,North,10.4,-,N/A,,Clear,10,2013-04-22 21:53:00
3:53 PM,66.0,33.1,29,30.37,10.0,NNE,12.7,18.4,N/A,,Clear,30,2013-04-22 22:53:00
4:53 PM,66.0,27.0,23,30.36,10.0,NNE,12.7,19.6,N/A,,Clear,30,2013-04-22 23:53:00
5:53 PM,64.9,28.9,26,30.35,10.0,North,15.0,-,N/A,,Clear,350,2013-04-23 00:53:00
6:53 PM,63.0,30.0,29,30.35,10.0,North,10.4,-,N/A,,Clear,10,2013-04-23 01:53:00
7:53 PM,57.9,32.0,37,30.35,10.0,North,6.9,-,N/A,,Clear,10,2013-04-23 02:53:00
8:53 PM,54.0,32.0,43,30.37,10.0,North,6.9,-,N/A,,Clear,360,2013-04-23 03:53:00
9:53 PM,53.1,34.0,48,30.39,10.0,North,8.1,-,N/A,,Clear,360,2013-04-23 04:53:00
10:53 PM,51.1,35.1,54,30.38,10.0,North,6.9,-,N/A,,Clear,10,2013-04-23 05:53:00
11:53 PM,48.9,35.1,59,30.38,10.0,NNW,4.6,-,N/A,,Clear,340,2013-04-23 06:53:00